This demonstration page uses our WeatherBlox Daily Observations layout. Learn more.

Left ArrowRight Arrow

39.29038, -76.61219

Hourly Observations for April 11, 2021

Temp ( °F °C ) Dew Point ( °F °C ) Humidity (%) Winds ( mph kmh ) Pressure ( in mb ) Visibility ( mi km ) Precip ( " mm )
12:54 am 00:54 Cloudy with Light Rain 62 16.7 56 13.3 80 80 ESE 5 7 29.69 1005 7 11.26538 0.001 0.001
1:48 am 01:48 Cloudy with Light Rain 61 16 55 13 83 83 VRB 3 6 29.67 1005 6 9.65604 0.06 1.524
1:54 am 01:54 Cloudy with Light Rain 60 15.6 56 13.3 86 86 E 3 6 29.65 1004 6 9.65604 0.06 1.524
2:54 am 02:54 Cloudy with Light Rain 60 15.6 57 13.9 90 90 E 7 11 29.62 1003 7 11.26538 0.01 0.254
3:18 am 03:18 Cloudy with Light Rain 59 15 57 13.9 93 93 E 6 9 29.61 1003 7 11.26538 0.01 0.254
3:54 am 03:54 Cloudy with Light Rain 59 15 57 13.9 93 93 ENE 7 11 29.59 1002 5 8.0467 0.04 1.016
4:07 am 04:07 Cloudy with Rain 59 15 57 13.9 93 93 E 7 11 29.59 1002 2 3.21868 0.05 1.27
4:13 am 04:13 Cloudy with Heavy Rain 59 15 57 13.9 93 93 E 6 9 29.6 1002 1.25 2.011675 0.07 1.778
4:27 am 04:27 Cloudy with Light Rain 59 15 57 13.9 93 93 E 8 13 29.58 1002 2.5 4.02335 0.17 4.318
4:38 am 04:38 Cloudy with Light Rain 59 15 57 13.9 93 93 ENE 9 15 29.57 1001 3 4.82802 0.19 4.826
4:54 am 04:54 Cloudy with Heavy Rain 59 15 57 13.9 93 93 E 13 20 29.56 1001 0.75 1.207005 0.28 7.112
5:10 am 05:10 Cloudy with Light Rain 59 15 57 13.9 93 93 E 10 17 29.55 1001 2 3.21868 0.06 1.524
5:35 am 05:35 Cloudy with Light Rain 60 15.6 58 14.4 93 93 E 9 15 29.54 1000 5 8.0467 0.09 2.286
5:54 am 05:54 Cloudy with Light Rain 60 15.6 58 14.4 93 93 E 9 15 29.52 1000 4 6.43736 0.09 2.286
6:24 am 06:24 Cloudy with Mist and Fog 61 16.1 59 15 93 93 E 12 19 29.52 1000 6 9.65604 0.001 0.001
6:43 am 06:43 Cloudy with Mist and Fog 61 16.1 59 15 93 93 ESE 12 19 29.52 1000 6 9.65604 0.001 0.001
6:54 am 06:54 Cloudy with Mist and Fog 61 16.1 59 15 93 93 ESE 10 17 29.51 999 6 9.65604 0.001 0.001
7:09 am 07:09 Cloudy 61 16.1 59 15 93 93 E 9 15 29.51 999 10 16.0934 0 0
7:29 am 07:29 Cloudy 62 16.7 59 15 90 90 E 9 15 29.5 999 10 16.0934 0 0
7:54 am 07:54 Cloudy with Drizzle 63 17.2 60 15.6 90 90 ESE 9 15 29.49 999 8 12.87472 0.001 0.001
8:54 am 08:54 Cloudy with Light Rain 63 17.2 59 15 87 87 SSW 3 6 29.49 999 8 12.87472 0.01 0.254
9:41 am 09:41 Mostly Cloudy 65 18.3 61 16.1 87 87 SW 6 9 29.5 999 10 16.0934 0.001 0.001
9:54 am 09:54 Mostly Cloudy 66 18.9 60 15.6 81 81 WSW 15 24 29.49 999 10 16.0934 0.001 0.001
10:27 am 10:27 Mostly Cloudy 69 20.6 61 16.1 76 76 W 13 20 29.49 998 10 16.0934 0 0
10:54 am 10:54 Partly Cloudy 70 21.1 60 15.6 71 71 W 16 26 29.49 999 10 16.0934 0 0
11:54 am 11:54 Partly Cloudy 74 23.3 58 14.4 57 57 W 15 24 29.48 998 10 16.0934 0 0
12:54 pm 12:54 Mostly Sunny 76 24.4 56 13.3 50 50 W 13 20 29.49 999 10 16.0934 0 0
1:54 pm 13:54 Partly Cloudy 77 25 54 12.2 45 45 W 10 17 29.47 998 10 16.0934 0 0
2:54 pm 14:54 Partly Cloudy 78 25.6 52 11.1 40 40 WSW 7 11 29.46 998 10 16.0934 0 0
3:54 pm 15:54 Mostly Sunny 78 25.6 49 9.4 36 36 E 3 6 29.42 996 10 16.0934 0 0
4:54 pm 16:54 Mostly Cloudy 78 25.6 48 8.9 35 35 SSE 6 9 29.43 997 10 16.0934 0 0
5:54 pm 17:54 Mostly Cloudy 76 24.4 53 11.7 45 45 ESE 13 20 29.43 997 10 16.0934 0 0
6:54 pm 18:54 Mostly Cloudy 74 23.3 53 11.7 48 48 SE 9 15 29.44 997 10 16.0934 0 0
7:21 pm 19:21 Mostly Cloudy 69 20.6 55 12.8 61 61 S 12 19 29.45 997 10 16.0934 0.001 0.001
7:54 pm 19:54 Mostly Cloudy 66 18.9 54 12.2 65 65 SE 9 15 29.44 997 10 16.0934 0.001 0.001
8:04 pm 20:04 Mostly Cloudy with Thunderstorms 66 18.9 54 12.2 65 65 VRB 5 7 29.44 997 8 12.87472 0.01 0.254
8:54 pm 20:54 Mostly Cloudy with Thunderstorms 67 19.4 53 11.7 61 61 ENE 7 11 29.49 999 10 16.0934 0.03 0.762
9:54 pm 21:54 Mostly Cloudy with Light Rain 62 16.7 55 12.8 78 78 E 10 17 29.48 998 10 16.0934 0.13 3.302
10:54 pm 22:54 Mostly Cloudy 61 16.1 56 13.3 84 84 WNW 12 19 29.53 1000 10 16.0934 0.001 0.001
11:54 pm 23:54 Mostly Cloudy 62 16.7 56 13.3 80 80 NNW 8 13 29.54 1001 10 16.0934 0 0

Powered by AerisWeather